Flag for U.S.A. Weather past 2 weeks in Kalispell, Montana, U.S.A.

Now
53 °F

Haze.


Feels Like: 53 °F
Forecast: 54 / 86 °F
Wind: 3 mph from North

Location: Kalispell - Glacier Park International

Current Time: Aug 29, 2015 at 2:08:54 AM

Latest Report: Aug 29, 2015 at 12:55 AM


Visibility: 5 mi

Pressure: 29.88 "Hg (26.82 "Hg at 902m altitude)

Humidity: 66%

Dew point: 42 °F

Location of KalispellLocation

Historic Weather in Kalispell — Graph

°F

Kalispell temperature yesterday

Maximum temperature yesterday: 84 °F (at 2:55 PM)
Minimum temperature yesterday: 47 °F (at 5:55 AM)
Average temperature yesterday: 66 °F

Past Weeks' High & Low Weather Summary

 TemperatureHumidityPressure
High93 °F (Aug 14, 3:55 PM)92% (Aug 23, 6:55 AM)30.27 "Hg (Aug 23, 6:55 AM)
Low33 °F (Aug 23, 6:55 AM)12% (Aug 26, 3:55 PM)29.61 "Hg (Aug 21, 6:55 AM)
Average63 °F50%29.96 "Hg
* Reported Aug 14 12:55 AM — Aug 29 12:55 AM, Kalispell, Weather by CustomWeather, © 2015

Note: Actual official high and low records may vary slightly from our data, if they occured in-between our weather recording intervals... More about our weather records

Advertising

Kalispell weather history for previous 24 hours

 ConditionsComfort  
Time TempWeatherWind HumidityBarometerVisibility
12:55 AM
Sat, Aug 29
53 °FHaze.3 mph66%29.88 "Hg5 mi
11:55 PM
Fri, Aug 28
59 °FClear.5 mph56%29.90 "Hg6 mi
10:55 PM64 °FClear.5 mph50%29.90 "Hg6 mi
9:55 PM67 °FClear.No wind42%29.90 "Hg4 mi
8:55 PM70 °FPassing clouds.5 mph38%29.92 "Hg3 mi
7:55 PM74 °FPassing clouds.5 mph29%29.92 "Hg3 mi
6:55 PM80 °FPassing clouds.7 mph23%29.93 "Hg3 mi
5:55 PM81 °FOvercast.9 mph22%29.91 "Hg2 mi
4:55 PM82 °FOvercast.12 mph22%29.90 "Hg2 mi
3:55 PM82 °FOvercast.7 mph24%29.89 "Hg2 mi
2:55 PM84 °FMostly cloudy.5 mph22%29.88 "Hg2 mi
1:55 PM82 °FMostly cloudy.No wind23%29.89 "Hg2 mi
12:55 PM81 °FOvercast.5 mph24%29.90 "Hg2 mi
11:55 AM77 °FMostly cloudy.No wind29%29.94 "Hg2 mi
10:55 AM71 °FPartly sunny.3 mph36%29.97 "Hg4 mi
9:55 AM67 °FPassing clouds.No wind44%29.98 "Hg4 mi
8:55 AM58 °FScattered clouds.No wind67%29.99 "Hg3 mi
7:55 AM48 °FOvercast.No wind80%30.00 "Hg3 mi
6:55 AM48 °FOvercast.No wind80%29.99 "Hg3 mi
5:55 AM47 °FOvercast.3 mph80%29.98 "Hg4 mi
4:55 AM49 °FOvercast.5 mph77%29.98 "Hg4 mi
3:55 AM52 °FOvercast.No wind69%29.97 "Hg4 mi
2:55 AM51 °FOvercast.6 mph71%29.97 "Hg3 mi
Weather by CustomWeather, © 2015

See weather overviewHow to use our weather pages